Wind_Speed
19 20 21 21 22 23 25 28 29 30 35 37 35 37 36 36 40 41 42 44 44 43 43 42 42 44 44 44 42 43 43 45 45 45 54 61 63 61 60 65 61 68 68 68
22 23 24 25 29 31 33 36 36 38 40 44 43 41 41 40 42 43 45 46 47 48 46 44 43 43 43 42 41 39 41 34 36 40 44 54 56 58 65 62 63 62 64 67
26 27 29 33 36 38 38 41 44 47 46 45 48 46 45 44 44 43 46 47 47 47 46 45 43 42 41 40 40 37 36 33 32 35 36 46 46 46 52 57 60 58 59 62
30 31 33 36 38 40 41 44 48 48 50 50 47 54 49 47 46 46 46 45 46 46 47 47 45 43 42 38 39 37 34 35 37 38 36 38 40 36 39 39 43 47 47 52
32 35 37 39 41 43 44 46 49 49 50 53 50 48 49 49 44 44 43 43 43 44 43 44 44 44 41 39 39 38 36 35 36 35 34 29 36 33 36 34 33 36 42 45
35 39 42 44 45 46 47 47 48 49 50 48 47 47 46 45 45 45 45 44 43 44 45 46 45 45 42 38 36 35 35 34 31 25 28 27 25 30 37 27 27 31 39 45
39 44 46 46 46 46 46 47 47 47 48 47 48 49 46 49 49 49 46 48 50 50 50 50 49 47 45 39 36 33 31 33 27 24 26 25 25 31 33 32 30 29 30 35
44 48 46 46 44 44 43 43 44 46 49 52 50 53 52 48 47 49 53 53 52 50 50 49 48 46 42 38 32 28 30 29 30 27 25 29 27 26 27 29 28 28 29 29
48 49 45 45 42 41 43 45 48 50 51 53 54 54 52 50 53 50 50 50 46 43 43 40 38 38 36 34 32 30 33 31 28 28 26 30 27 26 26 26 27 26 25 25
46 49 42 44 44 46 46 48 49 50 55 57 57 55 48 47 47 43 43 42 40 37 35 34 31 34 38 34 34 36 31 34 28 28 25 26 24 22 22 23 25 24 24 26
45 46 45 44 45 49 50 53 54 54 55 56 54 51 44 39 38 40 41 38 34 32 31 31 31 32 36 38 35 44 32 31 32 33 27 25 24 21 22 22 22 23 26 29
44 48 47 47 47 52 55 55 53 52 49 47 48 46 35 34 37 38 39 33 24 21 18 25 30 33 30 34 36 32 38 36 34 33 31 27 20 19 20 23 22 22 23 23
46 49 50 52 53 58 57 51 46 45 46 44 44 42 34 31 32 34 34 31 26 26 30 24 26 26 24 23 27 30 42 42 39 35 33 29 27 22 23 27 26 22 22 22
46 47 49 52 54 55 51 42 39 44 46 42 41 36 25 34 35 28 30 29 26 25 27 24 24 22 19 18 17 22 15 45 42 34 33 29 21 15 23 27 27 22 22 23
44 47 52 53 51 48 42 37 38 43 40 40 31 32 32 28 26 22 23 25 26 25 27 27 25 25 26 18 16 18 17 34 44 35 31 28 18 15 24 28 28 20 22 23
46 50 53 50 45 41 37 37 36 33 27 30 28 26 30 17 20 22 28 21 26 27 27 28 30 28 26 20 18 19 13 31 31 30 30 27 15 20 24 29 29 23 23 22
49 51 52 48 43 40 37 32 28 27 29 30 25 24 28 27 25 26 26 27 29 32 33 34 33 32 26 24 19 20 17 29 28 29 27 23 20 22 25 28 30 24 22 20
50 51 49 44 41 36 26 27 26 24 23 22 24 29 29 30 30 28 30 36 35 36 36 34 30 23 21 22 23 23 23 19 22 24 25 21 20 23 24 27 25 23 21 19
50 48 45 40 37 25 25 23 22 25 21 24 28 29 31 34 36 33 34 37 38 35 31 29 25 20 15 20 20 21 25 26 25 24 21 17 20 21 24 23 21 19 20 18
49 43 39 35 28 24 23 20 26 32 29 31 33 34 35 34 32 24 24 26 27 26 23 21 18 13 14 19 19 20 22 29 29 25 18 19 22 23 22 19 17 18 16 17
44 40 34 27 26 22 25 24 32 36 35 38 40 41 39 33 31 22 19 19 21 21 22 23 24 17 16 17 19 21 22 21 24 21 21 22 22 17 17 15 16 12 13 15
41 38 31 25 24 26 25 29 33 36 39 42 43 42 35 27 23 21 19 18 17 19 21 18 13 14 17 18 19 21 20 19 20 19 19 15 13 12 11 12 10 9 11 11
37 38 30 24 23 26 29 34 35 40 43 42 43 38 33 25 22 22 21 20 20 20 12 4 5 6 10 14 20 20 18 16 17 18 15 13 8 10 10 7 6 9 0 25
36 37 31 24 23 26 26 31 37 43 43 41 37 32 33 32 30 27 24 24 22 18 11 11 11 12 10 11 13 8 21 21 21 18 17 10 10 6 1 2 12 30 34 20
39 35 31 24 25 26 29 34 38 40 40 37 31 32 36 37 35 33 29 28 20 11 10 14 14 14 16 14 11 14 27 25 21 21 15 11 7 2 5 11 13 29 19 16
34 31 32 24 26 29 29 35 39 41 39 33 33 37 31 31 30 25 19 14 10 14 14 16 12 13 19 21 18 22 28 25 27 21 16 12 5 10 12 20 35 26 19 20
Wind_Direction
281 281 288 292 294 297 297 297 298 297 297 299 297 298 295 288 287 286 283 279 277 274 274 275 274 279 281 286 290 294 296 298 297 276 263 264 267 263 263 263 256 246 243 243
287 290 292 295 299 302 300 301 300 300 298 301 300 300 299 294 289 289 290 289 287 285 283 280 279 280 283 285 289 291 293 291 286 284 271 255 260 264 262 257 260 253 246 243
296 299 301 306 306 304 302 301 302 302 301 300 300 299 297 293 289 289 287 287 285 284 283 282 282 282 286 286 289 289 285 283 293 297 282 259 258 265 273 272 261 262 259 251
298 301 301 301 299 299 299 301 301 302 301 300 301 300 300 296 297 296 295 293 290 290 288 287 287 287 287 289 288 285 272 276 284 294 289 266 263 267 258 278 279 263 260 254
297 297 299 299 299 300 303 303 301 301 299 299 301 300 300 301 302 299 297 293 291 288 285 284 285 284 285 291 287 281 274 271 281 295 285 266 266 263 269 276 278 256 252 252
296 299 301 303 304 304 304 303 301 300 300 301 300 300 299 302 300 299 297 294 289 285 286 287 287 286 286 287 283 279 282 276 274 281 270 254 255 260 267 276 270 262 249 248
303 303 303 306 306 307 307 305 304 304 304 303 303 301 304 302 301 299 298 294 292 290 289 287 286 285 285 283 276 271 267 266 263 259 260 267 274 256 276 279 268 260 254 253
306 304 307 308 309 310 309 308 306 305 303 302 301 302 302 300 300 296 294 293 294 292 290 289 287 284 280 271 264 259 255 253 256 251 248 251 260 257 262 264 266 265 262 259
305 307 311 311 312 310 308 306 304 302 300 299 301 301 299 302 298 297 296 293 290 291 289 286 282 278 270 261 247 244 241 247 247 255 250 255 255 260 263 271 278 275 268 264
305 307 313 311 311 310 309 307 307 307 304 303 302 300 306 300 299 297 292 292 293 290 286 285 285 278 266 258 245 245 239 229 240 243 246 251 257 262 266 268 270 277 278 273
306 308 312 311 310 311 311 310 309 306 303 303 304 306 312 304 300 294 293 293 290 287 290 294 290 283 272 256 247 245 233 226 233 239 238 246 251 261 269 276 283 285 283 276
306 307 311 311 312 311 310 310 307 305 306 302 305 305 308 302 296 296 296 293 285 291 307 300 291 289 280 254 245 250 227 218 225 241 245 249 263 278 279 277 281 287 284 282
310 311 312 312 315 314 313 313 309 302 299 304 300 308 303 297 293 297 293 289 293 291 299 297 297 295 276 258 265 271 262 218 220 232 245 243 245 266 281 284 281 284 286 287
310 311 311 313 315 312 313 312 304 297 300 302 304 303 296 293 294 297 288 285 291 289 299 300 294 290 279 266 264 275 264 218 224 229 235 237 246 271 279 275 276 292 292 290
309 311 311 316 316 314 314 311 301 299 302 301 307 296 300 299 292 287 298 289 285 292 290 290 293 291 285 272 251 270 257 229 220 223 233 238 242 265 277 270 273 283 286 286
311 314 316 320 318 315 315 307 304 307 306 312 312 307 301 301 291 297 292 296 290 291 290 287 287 290 287 266 237 259 249 200 211 220 230 236 253 267 277 275 272 280 282 282
314 316 319 322 320 320 320 313 317 314 311 313 311 309 301 294 312 292 287 292 290 287 286 284 283 286 272 258 244 248 244 204 213 220 229 247 258 270 274 278 272 273 274 275
316 319 321 324 323 327 321 319 321 323 321 317 308 303 302 295 293 291 291 287 285 280 279 284 286 281 268 250 241 233 232 210 217 227 238 252 259 265 274 278 263 267 269 270
318 321 322 324 325 329 315 328 332 330 328 323 314 308 305 301 297 299 291 281 281 286 291 289 285 279 257 241 229 221 225 227 223 233 241 252 263 266 268 259 263 268 265 266
319 319 322 323 322 326 323 330 333 329 329 327 324 321 318 315 308 310 298 286 286 292 294 295 289 276 243 228 227 225 222 227 231 238 249 257 260 258 255 251 266 269 277 283
317 318 322 320 317 318 316 319 326 323 328 329 327 326 321 319 312 308 297 294 290 288 289 292 285 260 239 223 213 218 220 225 233 239 247 248 245 241 237 263 270 302 305 297
316 316 322 309 311 307 311 315 320 325 330 328 324 320 319 319 311 306 303 299 293 300 305 295 279 253 226 221 216 213 215 219 220 214 217 225 218 220 249 262 293 294 298 292
311 309 319 306 314 308 315 315 318 324 325 323 321 318 317 316 310 305 299 299 300 310 282 235 238 222 211 219 217 214 213 195 198 199 192 171 203 217 244 275 280 263 67 95
304 307 319 314 306 305 305 312 313 316 321 321 315 313 311 311 308 304 300 301 303 295 229 230 240 220 202 157 157 168 174 181 182 173 153 165 195 203 180 7 104 103 121 128
299 311 315 312 304 304 308 309 311 316 320 314 313 312 308 303 300 296 290 294 294 237 229 245 241 227 202 178 162 151 162 166 161 153 153 169 139 151 103 79 131 131 92 90
306 308 309 309 304 305 311 312 316 320 318 316 316 313 312 314 309 301 297 292 256 233 242 243 237 198 187 184 182 167 156 155 152 145 149 146 137 103 109 128 127 112 94 71
Height
5835 5835 5833 5831 5829 5827 5825 5823 5822 5819 5815 5812 5811 5808 5805 5802 5797 5793 5790 5789 5787 5786 5785 5782 5779 5776 5774 5769 5767 5764 5761 5756 5754 5752 5750 5747 5746 5747 5750 5752 5760 5765 5771 5774
5831 5829 5827 5824 5822 5820 5816 5813 5811 5809 5805 5801 5799 5797 5793 5790 5785 5781 5777 5774 5772 5771 5770 5770 5768 5766 5762 5759 5755 5752 5749 5747 5743 5740 5739 5736 5736 5732 5732 5740 5742 5750 5755 5761
5824 5823 5820 5817 5813 5810 5807 5803 5800 5797 5796 5792 5786 5785 5783 5779 5774 5770 5766 5763 5760 5758 5756 5755 5753 5752 5749 5746 5744 5741 5738 5735 5734 5731 5729 5727 5726 5724 5722 5723 5730 5737 5742 5747
5819 5816 5814 5811 5807 5803 5800 5796 5791 5788 5783 5780 5779 5770 5769 5764 5761 5758 5754 5750 5747 5744 5741 5740 5739 5738 5735 5734 5733 5730 5729 5727 5725 5722 5720 5719 5718 5717 5712 5715 5718 5724 5729 5734
5814 5811 5808 5804 5800 5796 5792 5787 5781 5776 5772 5768 5765 5762 5757 5751 5749 5745 5743 5739 5735 5732 5730 5727 5725 5725 5723 5722 5720 5719 5718 5717 5716 5715 5713 5712 5710 5710 5713 5711 5710 5711 5716 5720
5807 5804 5800 5796 5791 5786 5781 5775 5772 5766 5761 5758 5754 5750 5748 5742 5737 5734 5731 5728 5725 5722 5718 5715 5713 5713 5713 5711 5710 5709 5709 5707 5707 5707 5706 5705 5705 5707 5705 5704 5703 5703 5705 5709
5801 5795 5791 5787 5782 5777 5772 5765 5759 5756 5750 5747 5742 5739 5738 5731 5726 5721 5717 5713 5710 5708 5706 5704 5702 5701 5701 5700 5700 5700 5700 5700 5699 5700 5701 5700 5701 5700 5697 5698 5698 5697 5698 5700
5790 5786 5783 5777 5773 5768 5761 5756 5751 5744 5740 5737 5733 5727 5724 5720 5714 5709 5703 5698 5696 5693 5691 5688 5688 5689 5689 5688 5688 5690 5691 5691 5691 5693 5694 5693 5693 5692 5692 5692 5692 5691 5692 5693
5780 5776 5774 5767 5764 5760 5753 5748 5741 5734 5731 5725 5722 5717 5712 5709 5701 5694 5689 5685 5682 5680 5677 5675 5673 5674 5675 5676 5678 5679 5681 5682 5683 5686 5686 5688 5687 5687 5687 5687 5687 5686 5687 5687
5772 5765 5768 5759 5754 5749 5743 5737 5730 5723 5714 5709 5707 5703 5704 5695 5686 5682 5677 5674 5670 5667 5665 5664 5664 5664 5664 5665 5668 5667 5670 5670 5675 5678 5680 5682 5682 5682 5682 5680 5679 5679 5679 5679
5763 5758 5757 5752 5746 5738 5732 5724 5717 5710 5703 5694 5689 5692 5688 5682 5675 5669 5664 5663 5660 5658 5656 5655 5654 5653 5652 5654 5656 5657 5661 5662 5668 5671 5673 5675 5676 5677 5676 5675 5675 5674 5673 5673
5756 5750 5746 5741 5736 5730 5722 5715 5706 5696 5692 5682 5679 5677 5679 5671 5664 5659 5656 5653 5652 5651 5649 5647 5644 5642 5641 5643 5646 5648 5650 5654 5659 5664 5668 5670 5673 5672 5671 5671 5671 5669 5667 5666
5747 5740 5735 5730 5725 5716 5708 5702 5694 5685 5679 5677 5669 5669 5663 5660 5656 5652 5648 5645 5644 5642 5642 5640 5638 5634 5632 5634 5638 5639 5639 5643 5649 5656 5661 5664 5666 5667 5666 5663 5663 5662 5661 5659
5736 5732 5726 5721 5716 5703 5699 5693 5683 5673 5668 5664 5662 5654 5659 5651 5647 5644 5639 5639 5637 5636 5636 5634 5630 5629 5628 5628 5630 5631 5633 5635 5641 5648 5654 5658 5660 5661 5659 5656 5655 5656 5654 5652
5728 5723 5716 5710 5703 5694 5687 5682 5676 5665 5661 5653 5654 5648 5645 5641 5639 5635 5633 5633 5631 5630 5629 5627 5625 5624 5623 5623 5624 5623 5624 5626 5635 5642 5648 5650 5652 5654 5652 5650 5649 5649 5648 5645
5720 5713 5706 5700 5692 5685 5679 5670 5663 5658 5654 5649 5645 5643 5637 5632 5633 5631 5628 5626 5625 5624 5622 5621 5619 5618 5617 5618 5618 5619 5618 5621 5629 5636 5641 5642 5646 5647 5647 5645 5644 5644 5641 5639
5709 5703 5696 5690 5681 5674 5669 5661 5656 5652 5648 5643 5640 5638 5634 5631 5628 5625 5623 5619 5617 5615 5614 5612 5611 5610 5611 5611 5612 5613 5615 5618 5625 5631 5635 5637 5641 5640 5641 5639 5638 5638 5636 5633
5699 5693 5687 5680 5673 5668 5660 5656 5652 5648 5643 5639 5635 5631 5627 5623 5621 5620 5616 5611 5607 5604 5603 5602 5600 5601 5601 5604 5607 5609 5612 5615 5621 5626 5629 5632 5634 5634 5634 5633 5632 5631 5629 5628
5690 5683 5677 5672 5666 5663 5656 5652 5648 5644 5642 5634 5630 5625 5621 5615 5610 5611 5605 5599 5595 5591 5591 5591 5591 5592 5593 5595 5600 5604 5607 5610 5616 5620 5624 5627 5627 5628 5627 5627 5628 5625 5624 5623
5682 5676 5671 5664 5658 5655 5651 5647 5642 5637 5633 5628 5622 5617 5611 5606 5598 5599 5594 5590 5587 5584 5582 5582 5584 5586 5587 5590 5593 5597 5601 5606 5611 5614 5618 5620 5622 5622 5623 5625 5622 5621 5621 5620
5673 5668 5663 5656 5652 5651 5646 5642 5637 5630 5628 5618 5612 5608 5602 5597 5591 5590 5587 5585 5581 5579 5577 5575 5575 5578 5580 5582 5586 5591 5596 5601 5605 5608 5614 5616 5617 5619 5622 5622 5620 5622 5620 5619
5665 5660 5657 5652 5648 5644 5640 5636 5630 5625 5619 5611 5606 5600 5594 5591 5587 5583 5581 5578 5576 5574 5572 5569 5568 5568 5572 5577 5581 5586 5592 5598 5604 5606 5609 5612 5616 5619 5621 5621 5621 5621 5619 5616
5657 5653 5651 5647 5643 5637 5632 5626 5622 5616 5611 5606 5598 5592 5586 5584 5581 5577 5574 5571 5570 5568 5567 5566 5566 5566 5568 5571 5578 5584 5590 5595 5598 5601 5609 5613 5615 5619 5619 5620 5621 5619 5618 5614
5649 5645 5643 5639 5637 5632 5628 5623 5617 5610 5604 5598 5592 5585 5579 5575 5571 5568 5566 5563 5562 5561 5561 5562 5565 5567 5570 5574 5578 5581 5585 5592 5596 5604 5610 5615 5618 5617 5620 5621 5621 5622 5620 5621
5639 5639 5635 5633 5628 5626 5622 5617 5612 5605 5598 5590 5584 5577 5571 5565 5562 5558 5556 5555 5554 5553 5555 5557 5560 5564 5570 5575 5579 5582 5586 5592 5600 5607 5614 5616 5618 5620 5621 5625 5628 5627 5626 5626
5634 5632 5627 5625 5621 5617 5615 5609 5603 5596 5589 5582 5577 5570 5563 5556 5552 5547 5546 5546 5547 5548 5549 5550 5554 5559 5565 5574 5579 5583 5590 5597 5605 5612 5616 5619 5621 5623 5625 5628 5631 5634 5634 5632